Tracking 27107 objects as of 20-Mar-2023
HD Live streaming from Space Station
objects crossing your sky now

ONEWEB-0184

Track ONEWEB-0184 now!
10-day predictions
ONEWEB-0184 is classified as:


NORAD ID: 48211
Int'l Code: 2021-031B
Perigee: 1,211.1 km
Apogee: 1,214.7 km
Inclination: 87.9 °
Period: 109.5 minutes
Semi major axis: 7583 km
RCS: Unknown
Launch date: April 25, 2021
Source: United Kingdom (UK)
Launch site: VOSTOCHNY COSMODROME (VOSTO)
Your satellite tracking list
Your tracking list is empty




NASA's NSSDC Master Catalog

Two Line Element Set (TLE):
1 48211U 21031B   23079.30338726  .00000304  00000-0  78521-3 0  9999
2 48211  87.9121 165.4093 0002361 137.5115 222.6198 13.14501603 92622
Source of the keplerian elements: AFSPC